This demonstration page uses our WeatherBlox Daily Observations layout. Learn more.

Left ArrowRight Arrow

31.31129, -92.44514

Hourly Observations for December 15, 2019

Temp ( °F °C ) Dew Point ( °F °C ) Humidity (%) Winds ( mph kmh ) Pressure ( in mb ) Visibility ( mi km ) Precip ( " mm )
12:53 am 00:53 Mostly Clear with Mist and Fog 49 9.4 47 8.3 93 93 E 3 6 29.89 1012 6 10 0.00 0.00
1:12 am 01:12 Mostly Cloudy with Mist and Fog 48 8.9 47 8.3 96 96 ESE 5 7 29.89 1012 6 10 0.00 0.00
1:53 am 01:53 Cloudy with Mist and Fog 49 9.4 48 8.9 97 97 ESE 3 6 29.89 1012 5 8 0.00 0.00
2:53 am 02:53 Cloudy 53 11.7 50 10 89 89 E 3 6 29.89 1012 7 11 0.00 0.00
3:09 am 03:09 Cloudy 53 11.7 50 10 89 89 E 5 7 29.88 1012 7 11 0.00 0.00
3:53 am 03:53 Cloudy 54 12.2 50 10 87 87 E 6 9 29.89 1012 8 13 0.00 0.00
4:51 am 04:51 Cloudy 54 12 52 11 94 94 E 9 15 29.88 1012 7 11 0.00 0.00
4:53 am 04:53 Cloudy 54 12.2 51 10.6 90 90 E 10 17 29.89 1012 7 11 0.00 0.00
5:53 am 05:53 Cloudy with Mist and Fog 54 12.2 52 11.1 93 93 E 10 17 29.89 1012 5 8 0.00 0.00
6:35 am 06:35 Cloudy with Mist and Fog 54 12.2 53 11.7 97 97 ESE 9 15 29.89 1012 2 3 0.00 0.00
6:44 am 06:44 Cloudy with Mist and Fog 54 12.2 53 11.7 97 97 ESE 9 15 29.89 1012 2 2 0.00 0.00
6:53 am 06:53 Cloudy with Mist and Fog 54 12.2 53 11.7 97 97 ESE 9 15 29.91 1013 2 3 0.00 0.00
7:01 am 07:01 Cloudy with Mist and Fog 54 12.2 53 11.7 97 97 ESE 10 17 29.90 1013 3 4 0.00 0.00
7:28 am 07:28 Cloudy with Mist and Fog 55 12.8 54 12.2 96 96 ESE 10 17 29.90 1013 2 3 0.00 0.00
7:53 am 07:53 Cloudy with Mist and Fog 55 12.8 54 12.2 96 96 ESE 12 19 29.91 1013 1 2 0.00 0.00
8:05 am 08:05 Cloudy with Fog 55 12.8 54 12.2 96 96 SE 13 20 29.90 1013 1 1 0.00 0.00
8:18 am 08:18 Mostly Cloudy with Fog 55 12.8 55 12.8 100 100 SE 13 20 29.90 1013 0 0 0.00 0.00
8:53 am 08:53 Mostly Cloudy with Fog 57 13.9 56 13.3 96 96 SE 12 19 29.91 1013 0 0 0.00 0.00
9:50 am 09:50 Mostly Cloudy with Fog 59 15 57 14 94 94 SE 9 15 29.92 1013 1 1 0.00 0.00
9:53 am 09:53 Mostly Cloudy with Fog 59 15 59 15 100 100 SE 12 19 29.93 1014 1 1 0.00 0.00
10:07 am 10:07 Cloudy with Mist and Fog 60 15.6 59 15 96 96 SE 9 15 29.92 1013 1 2 0.00 0.00
10:22 am 10:22 Cloudy with Mist and Fog 61 16.1 60 15.6 97 97 SE 9 15 29.92 1013 3 4 0.00 0.00
10:33 am 10:33 Cloudy with Mist and Fog 62 16.7 60 15.6 93 93 SE 9 15 29.91 1013 3 5 0.00 0.00
10:50 am 10:50 Cloudy with Mist and Fog 64 18 61 16 88 88 SE 8 13 29.91 1013 5 8 0.00 0.00
10:53 am 10:53 Cloudy with Mist and Fog 64 17.8 61 16.1 90 90 SE 8 13 29.92 1013 5 8 0.00 0.00
11:03 am 11:03 Cloudy with Mist and Fog 66 18.9 62 16.7 87 87 S 8 13 29.91 1013 6 10 0.00 0.00
11:27 am 11:27 Cloudy 68 20 63 17.2 84 84 SSE 7 11 29.89 1012 8 13 0.00 0.00
11:53 am 11:53 Cloudy 73 22.8 65 18.3 76 76 S 16 26 29.88 1012 10 16 0.00 0.00
12:40 pm 12:40 Mostly Cloudy 76 24.4 65 18.3 69 69 S 13 20 29.84 1010 10 16 0.00 0.00
12:53 pm 12:53 Mostly Cloudy 77 25 65 18.3 66 66 S 20 31 29.84 1011 10 16 0.00 0.00
1:53 pm 13:53 Mostly Cloudy 78 25.6 63 17.2 60 60 S 22 35 29.82 1010 10 16 0.00 0.00
2:53 pm 14:53 Mostly Cloudy 77 25 62 16.7 60 60 S 22 35 29.83 1010 10 16 0.00 0.00
3:53 pm 15:53 Mostly Cloudy 76 24.4 63 17.2 64 64 S 21 33 29.84 1011 10 16 0.00 0.00
4:53 pm 16:53 Cloudy 74 23.3 64 17.8 71 71 S 16 26 29.85 1011 10 16 0.00 0.00
5:53 pm 17:53 Mostly Clear 72 22.2 65 18.3 79 79 S 12 19 29.86 1011 10 16 0.00 0.00
6:53 pm 18:53 Mostly Cloudy 71 21.7 65 18.3 81 81 SSE 17 28 29.86 1011 10 16 0.00 0.00
7:42 pm 19:42 Mostly Cloudy 70 21.1 65 18.3 84 84 SSE 12 19 29.86 1011 10 16 0.00 0.00
7:53 pm 19:53 Mostly Cloudy 70 21.1 65 18.3 84 84 SSE 13 20 29.88 1012 10 16 0.00 0.00
8:53 pm 20:53 Mostly Cloudy 69 20.6 64 17.8 84 84 SSE 13 20 29.88 1012 10 16 0.00 0.00
9:02 pm 21:02 Mostly Cloudy 69 20.6 65 18.3 87 87 SSE 12 19 29.87 1011 10 16 0.00 0.00
9:53 pm 21:53 Cloudy 69 20.6 65 18.3 87 87 SSE 10 17 29.88 1012 10 16 0.00 0.00
10:53 pm 22:53 Cloudy 69 20.6 65 18.3 87 87 SSE 8 13 29.89 1012 10 16 0.00 0.00
11:06 pm 23:06 Cloudy 69 20.6 65 18.3 87 87 SSE 9 15 29.88 1012 10 16 0.00 0.00
11:40 pm 23:40 Cloudy 68 20 65 18.3 90 90 SSE 9 15 29.88 1012 10 16 0.00 0.00
11:53 pm 23:53 Mostly Cloudy 68 20 65 18.3 90 90 SSE 10 17 29.88 1012 10 16 0.00 0.00

Powered by AerisWeather